Change the Weather History Date:

Saturday, February 28, 2015

  Actual Average Record
Temperature  
Mean Temperature 18 °F -  
Max Temperature 28 °F 39 °F 55 °F (1976)
Min Temperature 7 °F 26 °F 7 °F (2015)
Degree Days  
Heating Degree Days 48    
Moisture  
Dew Point 9 °F    
Average Humidity 64    
Maximum Humidity 87    
Minimum Humidity 43    
Precipitation  
Precipitation 0.00 in - - ()
Sea Level Pressure  
Sea Level Pressure 30.69 in    
Wind  
Wind Speed 4 mph (West)    
Max Wind Speed 8 mph    
Max Gust Speed -    
Visibility 10 miles    
Events      
Averages and records for this station are not official NWS values.
T = Trace of Precipitation, MM = Missing Value Source: NWS Daily Summary

Daily Weather History Graph

Daily Weather History Graph

Search for Another Location

Airport or City:

Trip Planner

Search our weather history database for the weather conditions in past years. The results will help you decide how hot, cold, wet, or windy it might be!

Date:

Astronomy

Feb. 28, 2015 Rise Set
Actual Time 6:16 AM EST 5:28 PM EST
Civil Twilight 5:48 AM EST 5:56 PM EST
Nautical Twilight 5:16 AM EST 6:29 PM EST
Astronomical Twilight 4:44 AM EST 7:01 PM EST
Moon 1:05 PM EST (2/28) 2:56 AM EST (2/28)
Length of Visible Light 12h 08m
Length of Day
11h 12m
Waxing Gibbous, 78% of the Moon is Illuminated
Feb 28
Waxing Gibbous
Mar 5
Full
Mar 13
Last Quarter
Mar 20
New
Mar 27
First Quarter

Hourly Weather History & Observations

Time (EST) Temp. Windchill Dew Point Humidity Pressure Visibility Wind Dir Wind Speed Gust Speed Precip Events Conditions
12:52 AM 12.9 °F 5.2 °F 6.1 °F 74% 30.55 in 10.0 mi WNW 4.6 mph - N/A   Clear
1:52 AM 12.9 °F - 6.1 °F 74% 30.57 in 10.0 mi Calm Calm - N/A   Clear
2:52 AM 12.9 °F 6.9 °F 5.0 °F 71% 30.57 in 10.0 mi NW 3.5 mph - N/A   Clear
3:52 AM 10.0 °F - 5.0 °F 80% 30.60 in 10.0 mi Calm Calm - N/A   Clear
4:52 AM 7.0 °F - 1.9 °F 80% 30.63 in 10.0 mi Calm Calm - N/A   Clear
5:52 AM 7.0 °F 0.1 °F 3.9 °F 87% 30.67 in 10.0 mi WNW 3.5 mph - N/A   Clear
6:52 AM 16.0 °F 10.4 °F 9.0 °F 74% 30.68 in 10.0 mi NNW 3.5 mph - N/A   Clear
7:52 AM 21.9 °F 15.7 °F 10.9 °F 63% 30.71 in 10.0 mi NNW 4.6 mph - N/A   Clear
8:52 AM 25.0 °F 17.1 °F 9.0 °F 51% 30.74 in 10.0 mi NNW 6.9 mph - N/A   Clear
9:52 AM 26.1 °F 17.6 °F 8.1 °F 47% 30.74 in 10.0 mi WNW 8.1 mph - N/A   Clear
10:52 AM 26.1 °F 21.9 °F 9.0 °F 49% 30.75 in 10.0 mi Variable 3.5 mph - N/A   Clear
11:52 AM 26.1 °F 18.4 °F 8.1 °F 47% 30.75 in 10.0 mi Variable 6.9 mph - N/A   Clear
12:52 PM 28.0 °F 24.2 °F 10.0 °F 47% 30.73 in 10.0 mi Variable 3.5 mph - N/A   Clear
1:52 PM 27.0 °F 18.7 °F 10.9 °F 51% 30.72 in 10.0 mi SW 8.1 mph - N/A   Clear
2:52 PM 26.1 °F 20.5 °F 8.1 °F 47% 30.71 in 10.0 mi Variable 4.6 mph - N/A   Clear
3:52 PM 27.0 °F 20.5 °F 7.0 °F 43% 30.70 in 10.0 mi SW 5.8 mph - N/A   Clear
4:52 PM 26.1 °F 18.4 °F 10.0 °F 51% 30.71 in 10.0 mi WSW 6.9 mph - N/A   Clear
5:52 PM 24.1 °F - 10.9 °F 57% 30.72 in 10.0 mi Calm Calm - N/A   Clear
6:52 PM 21.0 °F 14.6 °F 10.0 °F 63% 30.73 in 10.0 mi WSW 4.6 mph - N/A   Clear
7:52 PM 18.0 °F 12.7 °F 9.0 °F 68% 30.74 in 10.0 mi WSW 3.5 mph - N/A   Clear
8:52 PM 21.9 °F 15.7 °F 12.9 °F 68% 30.74 in 10.0 mi WSW 4.6 mph - N/A   Clear
9:52 PM 19.0 °F 13.9 °F 12.0 °F 74% 30.74 in 10.0 mi WSW 3.5 mph - N/A   Clear
10:52 PM 19.9 °F 14.9 °F 15.1 °F 81% 30.73 in 10.0 mi WSW 3.5 mph - N/A   Clear
11:52 PM 19.0 °F 13.9 °F 15.1 °F 85% 30.73 in 10.0 mi West 3.5 mph - N/A   Clear